Retour au catalogue

ICEYE-X39

ActifScienceSSO
NORAD 60546·PAYLOAD·🇧🇷 Brazil

Lancé Aug 16, 2024 depuis Vandenberg Space Force Base

Loading…

Prochains Passages (prochaines 24 heures)

TLE

FraisSource: Space-Track

Époque: Sep 14, 2026, 11:04 UTC

1 60546U 24149CG  26257.46111749  .00001617  00000-0  13477-3 0  9996
2 60546  97.6729 333.3155 0009179 190.4400 169.6634 14.99989927113502

Suivez ICEYE-X39 en temps réel avec AllMySat

Download on the App Store